User: anonymous   Login
Location: Unspecified
(0.0000°N, 0.0000°E)
Time: 18:56:57
(UTC+00:00)
Language:

SRMSAT - Orbit

View from above orbital plane
View from above orbital plane
View from above satellite
View from above satellite

Ground track
Ground track

The orbit data is extracted from the following two-line orbital elements,

1 37841U 11058D   19341.54308788  .00000296  00000-0  17472-4 0  9991
2 37841  19.9725  72.9662 0011744 285.1730 185.5196 14.10644844420987
Epoch (UTC): 07 December 2019 13:02:02
Eccentricity: 0.0011744
inclination: 19.9725°
perigee height: 848 km
apogee height: 865 km
right ascension of ascending node: 72.9662°
argument of perigee: 285.1730°
revolutions per day: 14.10644844
mean anomaly at epoch: 185.5196°
orbit number at epoch: 42098

The dashed part of the orbit path shows where the satellite is in the earth's shadow,  

DLR